Regional Weather Roundup
Issued by NWS

Home | Current Version | Previous Version | Graphics & Text | Print | Product List | Glossary On
Versions: 1 2 3 4 5 6 7 8 9 10 11 12 13 14 15 16 17 18 19 20 21 22 23 24 25 26
000
ASUS45 KTFX 260710
RWRMT
MONTANA REGIONAL WEATHER ROUNDUP
NATIONAL WEATHER SERVICE GREAT FALLS MT
100 AM MDT THU MAY 26 2016

NOTE: "FAIR" INDICATES FEW OR NO CLOUDS BELOW 12000 FEET WITH NO
SIGNIFICANT WEATHER AND/OR OBSTRUCTIONS TO VISIBILITY.

MTZ001>007-043-260800-
WEST OF THE DIVIDE

CITY           SKY/WX    TMP DP  RH WIND       PRES   REMARKS
KALISPELL      CLOUDY    49  49 100 CALM      29.98S
MISSOULA       PTCLDY    51  45  79 SE3       30.04R
BUTTE          CLOUDY    41  35  79 CALM      30.06R
MULLAN PASS    MOCLDY    43  40  89 NW6       30.09R
ANACONDA         N/A     48  37  66 W7        30.04R
DEER LODGE       N/A     45  39  81 CALM      30.04R
EUREKA           N/A     55  46  71 SE5         N/A
HAMILTON         N/A     52  41  66 SE6       30.04S
LIBBY            N/A     52  46  82 CALM      29.99S
$$

MTZ008-052>055-260800-
SOUTHWEST MONTANA

CITY           SKY/WX    TMP DP  RH WIND       PRES   REMARKS
BOZEMAN        CLOUDY    50  42  74 CALM      30.00R
DILLON         CLOUDY    43  33  68 S6        30.02S
ENNIS          CLEAR     46  37  71 S12G18    30.08R
$$

MTZ009-010-012-014-046-048-049-054-260800-
EAST SLOPES AND CENTRAL MONTANA

CITY           SKY/WX    TMP DP  RH WIND       PRES   REMARKS
CUT BANK       PTCLDY    47  40  76 N3        29.94S
GREAT FALLS    PTCLDY    45  42  89 SW10      29.94R
MALMSTROM AFB  MOCLDY    50  44  79 W7        29.93S
HELENA         CLEAR     49  44  83 SE3       29.97R
CHOTEAU          N/A     48  45  87 W5        29.94F
$$

MTZ011-013-016-021-045-047-050-051-260800-
NORTH CENTRAL MONTANA

CITY           SKY/WX    TMP DP  RH WIND       PRES   REMARKS
HAVRE            N/A    N/A N/A N/A MISG      29.90R
LEWISTOWN      CLEAR     44  39  82 W3        29.92F
N BAR RANCH      N/A     41  37  87 W3        29.94S
CHINOOK          N/A     45  45 100 CALM      29.90S
$$

MTZ017>020-022>027-061-062-260800-
NORTHEAST MONTANA

CITY           SKY/WX    TMP DP  RH WIND       PRES   REMARKS
GLASGOW        PTCLDY    47  42  83 W7        29.83F
JORDAN           N/A     50  45  83 NW7       29.85F
SIDNEY         CLEAR     48  45  87 NW3       29.83R
WOLF POINT     PTCLDY    46  43  89 SW3       29.84R
PLENTYWOOD       N/A     48  48 100 W6        29.81S
$$

MTZ028>42-056>058-260800-
SOUTHCENTRAL AND SOUTHEAST MONTANA

CITY           SKY/WX    TMP DP  RH WIND       PRES   REMARKS
BAKER          CLEAR     47  43  86 W7        29.87S
BILLINGS       MOCLDY    51  42  71 W13       29.94R
LIVINGSTON     CLOUDY    49  38  65 W6        29.98S
MILES CITY     CLOUDY    53  46  77 NW12      29.86S
FORSYTH          N/A     48  48 100 W3        29.87S
$$

REGIONAL REPORTS...DAKOTAS

CITY           SKY/WX    TMP DP  RH WIND       PRES   REMARKS
WILLISTON      PTCLDY    46  45  96 S7        29.81S
MINOT          CLOUDY    58  55  90 SW12      29.74R
DICKINSON      CLEAR     42  39  89 W6        29.81R
BEACH          CLOUDY    48  48 100 SW5       29.87S
CROSBY         CLOUDY    54  54 100 CALM      29.79S
WATFORD CITY     N/A     41  41 100 SW7       29.81S
BISMARCK       CLEAR     50  48  93 W6        29.80R
GRAND FORKS    CLOUDY    56  54  93 SW5       29.69F
FARGO          CLEAR     54  52  93 W5        29.72R
BUFFALO SD       N/A     45  40  82 W9        29.81S
RAPID CITY     CLEAR     46  44  93 CALM      29.90S
$$

REGIONAL REPORTS...WYOMING/IDAHO/WASHINGTON

CITY           SKY/WX    TMP DP  RH WIND       PRES   REMARKS
GILLETTE       PTCLDY    50  40  68 SW12      29.90F
SHERIDAN       PTCLDY    47  43  86 NW6       29.95R
BUFFALO WY     CLOUDY    47  37  68 W8        29.94F
CODY           CLEAR     48  36  61 NW3       29.98S
YELLOWSTONE LA   N/A     33  31  92 CALM      30.13S
IDAHO FALLS    CLEAR     41  39  93 CALM      30.06R
SALMON         CLEAR     46  36  66 S3        30.03S
BOISE          CLEAR     54  44  69 SE7       29.99S
SPOKANE        MOCLDY    59  42  53 SW12      29.99S
$$

REGIONAL REPORTS...ALBERTA

CITY           SKY/WX    TMP DP  RH WIND       PRES   REMARKS
EDMONTON       CLOUDY    54  50  87 SE5       29.90S
CALGARY        MOCLDY    54  46  76 W6        29.95S
LETHBRIDGE     MOCLDY    46  45  93 S7        29.92S
MEDICINE HAT   MOCLDY    46  45  93 W5        29.91S
WATERTON GATE    N/A     54  43  66 SW12G18     N/A
MILK RIVER       N/A     43  41  93 NW2         N/A
$$

REGIONAL REPORTS...SASKATCHEWAN

CITY           SKY/WX    TMP DP  RH WIND       PRES   REMARKS
SWIFT CURRENT  LGT RAIN  50  50 100 NE3       29.88S FOG
REGINA         LGT RAIN  52  50  93 N8        29.83F
SASKATOON      MOCLDY    54  46  76 N7        29.88F
CYPRESS HILLS    N/A     41  37  87 N2          N/A
VAL MARIE        N/A     43  41  93 NE6         N/A
ROCKGLEN         N/A     46  46 100 NW6         N/A
ASSINIBOIA       N/A     55  54  94 NW5         N/A
$$




USA.gov is the U.S. government's official web portal to all federal, state and local government web resources and services.